DW0000 Weather Reports


Display with metric or nautical units.
time (UTC)temp
F
wind
direction
speed
MPH
gust
MPH
rain 1hr
in
rain 24hr
in
rain mn
in
humidity
%
barometer
mb
20260510193005 58 203 10.0 16.0 0.00 0.03 0.00 75 1013.3
20260510192504 58 213 9.0 15.0 0.00 0.03 0.00 75 1013.1
20260510192007 58 212 12.0 23.0 0.00 0.03 0.00 75 1013.0
20260510191505 58 222 16.0 23.0 0.00 0.03 0.00 75 1012.8
20260510190505 58 212 10.0 21.0 0.00 0.03 0.00 76 1012.7
20260510185504 58 210 12.0 18.0 0.00 0.03 0.00 76 1012.7
20260510185005 58 224 13.0 18.0 0.00 0.04 0.00 75 1012.7
20260510184004 58 219 13.0 23.0 0.00 0.04 0.00 74 1012.4
20260510182504 58 227 13.0 20.0 0.00 0.04 0.00 73 1012.1
20260510180504 59 208 13.0 18.0 0.00 0.06 0.00 75 1011.9
20260510180005 59 239 9.0 16.0 0.00 0.06 0.00 76 1011.9
20260510174006 59 226 7.0 16.0 0.00 0.06 0.00 77 1011.5
20260510173007 58 245 9.0 20.0 0.00 0.06 0.00 76 1011.6
20260510172004 58 244 5.0 14.0 0.00 0.06 0.00 78 1011.2
20260510171504 58 234 9.0 20.0 0.00 0.06 0.00 80 1011.4
20260510170006 58 225 15.0 31.0 0.00 0.06 0.00 81 1011.3
20260510164507 59 210 14.0 23.0 0.00 0.06 0.00 79 1010.6
20260510163006 59 238 17.0 23.0 0.00 0.06 0.00 72 1010.6
20260510161507 59 224 16.0 26.0 0.00 0.06 0.00 72 1010.4
20260510161007 59 227 17.0 29.0 0.00 0.06 0.00 73 1010.5
20260510160006 59 227 16.0 26.0 0.00 0.06 0.00 70 1010.2
20260510155007 59 226 22.0 30.0 0.00 0.06 0.00 73 1010.4
20260510154008 59 228 13.0 26.0 0.00 0.06 0.00 78 1010.2
20260510153507 59 227 16.0 28.0 0.00 0.06 0.00 80 1010.1
20260510153007 58 228 17.0 30.0 0.00 0.06 0.00 83 1010.0
20260510152006 58 248 16.0 24.0 0.00 0.06 0.00 81 1009.8
20260510145006 58 241 13.0 24.0 0.00 0.06 0.00 81 1010.0
20260510144506 58 238 12.0 28.0 0.00 0.06 0.00 81 1010.0
20260510144007 59 228 16.0 25.0 0.00 0.06 0.00 81 1010.1
20260510143508 59 226 19.0 32.0 0.00 0.06 0.00 81 1010.0
20260510142507 59 227 19.0 30.0 0.00 0.06 0.00 79 1010.1
20260510141506 59 225 20.0 35.0 0.00 0.06 0.00 82 1009.9
20260510140009 58 240 13.0 24.0 0.00 0.06 0.00 82 1009.8
20260510133507 58 242 10.0 23.0 0.00 0.06 0.00 84 1009.8
20260510131508 58 233 18.0 29.0 0.00 0.06 0.00 84 1009.6
20260510131007 59 227 20.0 36.0 0.00 0.06 0.00 85 1009.7
20260510130007 59 237 13.0 24.0 0.00 0.06 0.00 84 1009.4
20260510125507 59 245 13.0 22.0 0.00 0.06 0.00 83 1009.3
20260510123007 58 232 15.0 25.0 0.00 0.06 0.00 84 1009.2
20260510122507 58 236 16.0 29.0 0.00 0.06 0.00 84 1009.2
20260510121506 58 226 22.0 35.0 0.00 0.06 0.00 88 1009.2
20260510121008 58 232 13.0 26.0 0.00 0.06 0.00 88 1009.1
20260510120007 59 225 26.0 37.0 0.00 0.06 0.00 86 1009.3
20260510115506 60 228 18.0 29.0 0.00 0.06 0.06 86 1008.9
20260510115007 60 226 12.0 21.0 0.00 0.06 0.06 86 1008.6
20260510112506 59 219 17.0 28.0 0.00 0.06 0.06 90 1008.6
20260510112008 59 242 14.0 23.0 0.00 0.06 0.06 89 1008.6
20260510110006 60 232 21.0 33.0 0.00 0.06 0.06 88 1008.5
20260510105506 59 239 15.0 30.0 0.00 0.06 0.06 89 1008.2
20260510105006 59 241 20.0 28.0 0.00 0.06 0.06 90 1008.2
20260510104006 60 229 16.0 24.0 0.00 0.06 0.06 90 1008.2
20260510103006 59 225 17.0 23.0 0.00 0.06 0.06 90 1008.0
20260510101507 60 241 16.0 29.0 0.00 0.06 0.06 91 1007.9
20260510101008 60 241 16.0 26.0 0.00 0.06 0.06 90 1007.9
20260510100007 60 252 16.0 37.0 0.00 0.06 0.06 87 1007.5
20260510095508 60 249 17.0 25.0 0.00 0.06 0.06 87 1007.3
20260510095006 60 247 17.0 25.0 0.00 0.06 0.06 87 1007.3
20260510094008 60 252 18.0 30.0 0.00 0.06 0.06 89 1007.3
20260510093006 60 258 20.0 32.0 0.00 0.06 0.06 88 1006.8
20260510092507 60 245 20.0 28.0 0.00 0.06 0.06 88 1006.9
20260510092006 60 248 18.0 33.0 0.00 0.06 0.06 89 1006.9
20260510091007 60 250 16.0 36.0 0.00 0.06 0.06 87 1006.9
20260510085507 60 248 19.0 29.0 0.00 0.06 0.06 86 1006.6
20260510085006 60 251 17.0 31.0 0.00 0.06 0.06 86 1006.6
20260510084506 60 255 16.0 31.0 0.00 0.06 0.06 86 1006.6
20260510083505 60 244 15.0 31.0 0.02 0.06 0.06 88 1006.7
20260510082507 59 248 17.0 28.0 0.02 0.06 0.06 89 1006.5
20260510075507 60 246 22.0 36.0 0.02 0.06 0.06 92 1006.2
20260510075006 60 245 18.0 33.0 0.02 0.06 0.06 91 1006.0
20260510073508 60 251 17.0 29.0 0.00 0.04 0.04 88 1005.8
20260510072506 60 246 18.0 28.0 0.00 0.04 0.04 88 1005.9
20260510072007 60 249 17.0 29.0 0.00 0.04 0.04 89 1006.0
20260510071506 60 251 16.0 28.0 0.00 0.04 0.04 89 1005.9
20260510071006 60 247 16.0 32.0 0.00 0.04 0.04 88 1005.9
20260510070507 60 248 22.0 31.0 0.00 0.04 0.04 89 1005.9
20260510065505 60 244 20.0 30.0 0.00 0.04 0.04 88 1006.1
20260510063006 60 245 21.0 35.0 0.00 0.04 0.04 87 1005.4
20260510061506 60 257 17.0 33.0 0.00 0.04 0.04 87 1005.4
20260510061005 60 247 18.0 31.0 0.00 0.04 0.04 88 1005.5
20260510055507 60 246 16.0 32.0 0.00 0.04 0.04 87 1005.2
20260510055006 60 248 18.0 29.0 0.00 0.04 0.04 88 1005.0
20260510054005 60 252 16.0 31.0 0.00 0.04 0.04 88 1005.0
20260510053007 60 243 21.0 33.0 0.00 0.04 0.04 87 1005.0
20260510052006 60 249 16.0 26.0 0.00 0.04 0.04 87 1004.8
20260510050007 61 251 17.0 29.0 0.00 0.04 0.04 86 1005.0
20260510045006 61 245 25.0 35.0 0.00 0.06 0.04 83 1004.7
20260510044505 61 251 20.0 28.0 0.00 0.06 0.04 85 1004.7
20260510041505 62 253 14.0 29.0 0.00 0.07 0.04 82 1004.4
20260510040006 62 246 20.0 33.0 0.00 0.07 0.04 82 1004.5
20260510034005 61 251 22.0 35.0 0.00 0.08 0.04 81 1004.6
20260510033507 61 247 20.0 32.0 0.00 0.09 0.04 82 1004.7
20260510032505 61 250 19.0 35.0 0.00 0.12 0.04 82 1004.5
20260510032007 61 250 20.0 32.0 0.00 0.12 0.04 85 1004.6
20260510025007 62 248 21.0 28.0 0.00 0.12 0.04 83 1004.5
20260510024005 64 239 21.0 35.0 0.00 0.12 0.04 82 1004.4
20260510022505 62 254 17.0 29.0 0.00 0.12 0.04 86 1004.3
20260510022007 62 248 18.0 29.0 0.00 0.12 0.04 85 1004.4
20260510021505 63 251 18.0 28.0 0.00 0.12 0.04 84 1004.3
20260510020505 64 259 12.0 24.0 0.00 0.12 0.03 81 1004.1
20260510015006 63 257 14.0 28.0 0.00 0.12 0.03 85 1004.1
20260510013505 63 252 12.0 23.0 0.00 0.12 0.03 82 1004.4
20260510013008 63 251 13.0 24.0 0.00 0.12 0.03 82 1004.2
20260510012505 63 270 11.0 23.0 0.00 0.12 0.03 82 1004.2
20260510012005 63 256 14.0 29.0 0.00 0.12 0.03 81 1003.9
20260510011507 64 257 17.0 29.0 0.00 0.12 0.03 80 1004.1
20260510010505 64 249 18.0 29.0 0.00 0.12 0.03 79 1004.3
20260510005506 64 249 17.0 29.0 0.00 0.12 0.03 79 1004.3
20260510005006 64 246 17.0 28.0 0.00 0.12 0.03 79 1004.2
20260510004505 64 251 20.0 33.0 0.00 0.12 0.03 79 1004.1
20260510004006 63 248 15.0 30.0 0.00 0.12 0.03 81 1004.4
20260510003505 63 246 21.0 31.0 0.00 0.12 0.03 81 1004.3
20260510003005 63 243 21.0 33.0 0.00 0.12 0.03 79 1004.5
20260510001505 62 246 18.0 28.0 0.00 0.12 0.03 86 1004.4
20260510001005 62 240 21.0 35.0 0.00 0.11 0.03 86 1004.5
20260509235505 63 259 13.0 24.0 0.00 0.11 0.03 84 1004.5
20260509235007 63 266 13.0 25.0 0.00 0.11 0.03 85 1004.7
20260509234505 63 255 16.0 26.0 0.00 0.11 0.03 84 1004.4
20260509233008 63 257 13.0 21.0 0.00 0.11 0.03 83 1004.4
20260509232506 63 255 16.0 28.0 0.00 0.11 0.03 84 1004.6
20260509232005 63 259 13.0 22.0 0.00 0.11 0.03 83 1004.7
20260509231506 63 270 10.0 22.0 0.00 0.11 0.03 83 1004.4
20260509231005 63 247 14.0 29.0 0.00 0.11 0.03 82 1005.0
20260509230505 63 243 17.0 29.0 0.00 0.11 0.03 82 1005.0
20260509225005 61 251 14.0 23.0 0.00 0.14 0.03 87 1004.7
20260509224507 61 248 14.0 22.0 0.00 0.14 0.03 85 1004.8
20260509223505 62 245 15.0 28.0 0.00 0.15 0.03 80 1004.7
20260509223007 62 247 19.0 33.0 0.00 0.15 0.03 80 1004.8
20260509222505 61 250 20.0 30.0 0.00 0.15 0.03 79 1004.7
20260509221506 60 249 17.0 25.0 0.00 0.15 0.03 79 1004.6
20260509220505 61 245 18.0 31.0 0.00 0.15 0.03 81 1005.0
20260509220008 62 246 24.0 37.0 0.00 0.15 0.03 79 1005.0
20260509215505 62 248 15.0 26.0 0.00 0.15 0.03 79 1004.7
20260509215004 62 252 13.0 29.0 0.00 0.15 0.03 80 1004.7
20260509214505 61 244 21.0 29.0 0.00 0.15 0.03 80 1004.8
20260509213505 61 254 16.0 35.0 0.00 0.15 0.03 78 1004.6
20260509212505 61 250 21.0 35.0 0.00 0.15 0.03 78 1004.5
20260509212006 61 248 18.0 33.0 0.00 0.15 0.03 77 1004.5
20260509210506 60 248 18.0 28.0 0.00 0.15 0.03 82 1004.3
20260509210005 59 250 12.0 29.0 0.00 0.15 0.03 84 1004.3
20260509205504 60 237 13.0 22.0 0.00 0.15 0.03 84 1004.5
20260509203504 60 244 14.0 30.0 0.00 0.15 0.03 80 1004.2
20260509202505 59 256 16.0 31.0 0.00 0.15 0.03 80 1004.0
20260509201506 59 245 21.0 47.0 0.00 0.15 0.03 79 1003.9
20260509200005 58 245 14.0 22.0 0.00 0.15 0.03 83 1003.8
20260509195507 58 251 19.0 28.0 0.00 0.15 0.03 83 1003.8
20260509193504 58 249 20.0 28.0 0.00 0.15 0.03 86 1003.5